Temp
11 12 13 15 16 16 16 16 17 17 17 18 18 19 19 20 20 20 23 22 21 22 23 23 23 25 25 27 26 27 29 29 30 29 30 28 27 27 27 27 26 26 26 24 24
11 12 14 14 16 16 16 16 17 17 17 18 18 19 20 20 20 23 21 21 22 22 22 24 26 26 27 27 27 28 29 30 29 30 29 28 28 28 26 27 27 26 25 22 22
11 12 14 15 16 16 16 16 17 17 17 18 18 19 20 20 23 23 21 21 21 22 22 24 25 27 27 27 27 28 28 29 28 28 27 28 27 28 27 28 28 28 27 23 22
11 12 13 15 16 16 16 16 17 17 17 18 19 19 20 19 24 20 21 21 21 21 22 24 26 26 27 26 26 27 26 27 26 24 25 26 27 26 27 29 28 30 29 25 23
11 12 13 15 15 16 16 16 17 17 17 18 19 19 20 23 24 20 21 21 21 21 23 25 26 27 26 27 26 26 26 25 24 23 24 24 26 26 27 28 27 25 24 26 25
11 12 13 15 15 16 16 16 17 17 17 18 19 19 21 23 20 20 20 21 21 22 23 24 26 26 27 26 26 26 25 25 24 24 24 23 26 24 27 28 28 26 25 26 26
11 12 13 14 15 16 16 17 17 17 17 18 18 19 21 22 18 20 20 20 21 22 23 22 23 25 26 24 23 24 25 25 25 25 25 23 25 25 27 25 26 27 26 27 26
11 11 12 13 14 15 16 16 17 17 17 18 18 18 23 18 18 19 19 20 20 20 21 21 22 23 24 23 24 25 25 26 26 24 23 23 26 27 27 27 26 27 28 27 27
11 11 12 13 14 14 15 16 17 17 18 18 18 19 23 18 19 18 19 22 20 20 20 21 23 24 23 25 25 25 27 27 26 24 24 23 26 28 24 24 26 27 28 28 28
12 12 12 12 13 14 15 16 17 17 17 17 17 20 19 20 18 18 19 20 22 21 22 23 24 24 25 26 26 27 25 26 26 24 22 24 24 27 27 25 25 27 28 28 27
12 12 12 13 13 14 15 15 19 19 18 21 20 20 19 17 17 18 18 20 22 23 23 22 23 23 25 26 26 25 26 26 27 23 22 24 25 27 28 28 27 27 27 28 28
11 12 12 12 13 14 14 18 15 15 20 18 18 18 17 18 19 19 18 21 21 22 21 22 22 25 23 24 23 24 24 25 26 23 21 24 24 26 26 27 27 28 28 28 28
10 11 12 12 12 13 14 15 15 14 18 19 18 19 18 18 21 20 20 21 21 22 21 23 23 22 22 21 22 23 24 25 24 22 23 22 24 27 29 27 26 27 28 28 28
10 10 11 12 11 13 15 14 14 14 20 20 18 18 17 19 19 16 20 21 20 21 22 22 22 20 21 22 23 23 24 23 22 22 23 22 24 27 28 29 28 28 27 28 28
8 10 10 10 12 13 13 12 14 14 17 19 16 15 16 19 18 16 16 19 21 20 21 22 19 19 20 22 22 22 20 21 21 21 21 23 21 26 28 26 28 28 28 29 28
8 8 10 10 10 11 12 12 14 16 15 18 17 16 17 17 16 16 17 18 19 20 19 21 17 20 21 18 21 19 20 20 20 21 21 23 23 25 28 29 29 28 28 28 26
7 8 8 9 11 10 12 13 14 13 16 18 17 16 18 17 16 17 17 18 20 19 20 20 19 18 18 18 18 20 21 21 21 19 21 20 21 24 26 27 27 27 27 27 24
7 8 8 9 10 10 10 11 13 13 17 15 16 16 17 17 18 16 17 18 19 21 21 21 20 19 18 21 20 19 22 22 21 22 23 16 20 25 26 26 26 25 25 24 24
6 7 7 9 9 9 10 11 13 15 18 16 16 16 17 16 17 17 18 19 20 20 19 22 20 19 18 20 22 19 19 22 21 14 18 22 25 27 23 22 24 24 24 24 24
6 7 8 8 9 9 11 12 15 18 17 17 17 17 18 17 16 17 19 20 19 19 20 21 20 16 16 17 18 19 21 19 19 18 19 22 23 25 25 26 25 24 24 24 22
7 8 8 8 8 10 11 13 15 16 17 16 17 17 17 15 14 15 18 19 19 18 19 20 19 16 15 16 19 17 18 18 20 20 20 20 23 27 26 26 26 24 22 22 21
7 8 7 7 10 11 11 13 13 15 16 16 16 17 17 16 16 16 16 18 17 17 17 18 18 18 18 17 16 19 20 19 19 18 19 19 21 22 25 25 22 23 22 22 21
7 8 7 7 10 11 13 13 14 14 15 15 15 16 17 16 14 15 17 18 16 16 16 16 13 14 16 16 15 16 18 18 20 17 17 17 20 24 25 23 23 22 22 22 21
7 7 8 7 11 12 12 12 13 13 14 15 15 16 16 15 15 15 15 16 16 16 13 12 11 12 16 19 19 17 17 18 18 17 18 19 21 23 24 24 24 23 21 22 22
7 8 10 7 7 10 12 13 12 12 13 14 13 14 15 14 15 15 16 16 13 14 14 12 10 11 14 16 17 17 17 18 17 17 17 19 20 22 23 23 23 24 23 23 22
5 7 7 8 10 9 10 10 11 12 12 12 12 14 14 14 15 15 13 13 15 15 14 12 11 14 12 15 16 15 17 17 18 17 18 19 19 22 22 23 22 22 22 22 21
3 5 7 8 8 9 8 9 10 11 12 13 13 13 12 13 12 11 11 10 9 9 12 10 10 10 12 14 13 12 12 16 17 18 18 17 19 20 21 21 21 21 21 21 21
Height
794 794 794 794 794 795 795 796 796 795 796 796 794 796 794 791 789 791 792 793 792 793 795 795 797 798 797 796 798 797 801 802 797 802 796 796 802 803 803 805 808 808 807 811 814
794 794 795 793 793 795 794 795 796 796 796 795 794 794 791 788 792 791 792 791 792 794 795 795 795 797 795 796 797 798 800 794 788 788 794 797 798 800 808 805 807 807 811 815 817
794 795 796 795 794 794 795 796 796 796 796 794 793 792 790 790 792 790 790 790 792 794 795 795 795 795 796 795 797 794 800 789 794 794 797 796 801 798 805 805 799 800 802 813 816
793 793 794 794 795 794 795 796 795 797 795 792 791 790 791 792 796 791 789 791 794 793 796 796 794 797 797 801 797 803 797 796 798 802 804 803 796 801 801 795 795 792 796 806 811
792 792 792 793 793 794 796 794 795 793 793 794 792 792 792 790 787 791 789 791 794 795 795 794 793 793 800 796 801 801 800 802 801 805 804 806 803 800 794 791 795 799 802 801 805
792 793 794 794 793 793 792 793 794 794 793 794 793 792 790 793 789 791 791 792 795 796 796 795 792 793 793 798 802 799 801 801 803 803 804 810 801 804 789 787 789 796 798 799 801
791 792 792 791 791 792 792 793 792 792 793 792 791 789 789 789 790 790 792 793 793 797 796 796 796 797 795 804 804 803 806 802 801 801 804 807 806 797 787 791 791 790 793 793 795
790 791 792 793 792 792 791 791 791 791 791 790 789 790 785 789 790 791 794 795 794 795 797 797 797 798 800 804 804 805 804 807 794 803 805 808 802 786 780 786 790 786 785 786 788
791 792 791 791 791 792 791 790 789 789 789 790 791 791 785 789 792 792 795 794 796 797 798 796 797 799 805 805 808 805 801 800 800 801 803 808 797 781 787 789 787 782 779 779 781
789 791 791 790 790 790 788 787 787 790 788 790 791 791 789 789 792 792 794 796 796 798 799 797 797 801 801 802 811 799 807 800 801 804 809 805 800 784 780 785 784 778 774 774 776
787 789 789 789 790 790 789 790 790 788 789 783 787 787 787 793 791 792 795 797 794 796 800 799 804 806 797 795 793 799 798 799 791 803 810 799 792 783 775 773 773 770 770 768 765
785 787 788 788 790 790 789 788 790 793 787 786 788 788 790 792 792 793 797 796 796 800 801 805 805 790 797 797 807 805 806 801 791 804 814 798 788 781 774 767 765 762 760 758 757
784 785 786 788 790 790 790 792 791 790 789 785 786 787 790 792 788 790 795 793 794 796 801 797 794 794 801 808 811 805 806 800 804 809 802 806 787 769 754 758 759 754 752 750 749
784 785 785 788 793 787 788 790 791 790 785 780 785 785 789 789 792 792 792 794 798 798 796 798 794 802 805 802 803 805 795 802 811 815 810 804 798 768 757 751 750 747 747 743 745
784 783 785 787 787 787 788 790 791 791 802 779 786 788 789 788 789 794 795 794 792 798 799 795 802 806 805 799 799 801 805 808 812 814 813 805 816 770 751 760 750 741 738 737 738
789 788 784 786 786 788 787 791 792 799 800 780 783 786 788 789 792 795 795 794 794 797 800 794 803 798 797 807 801 807 810 812 814 815 816 794 800 767 752 742 741 739 736 736 740
787 788 789 785 786 788 788 792 801 802 782 776 782 785 783 789 794 792 795 794 793 804 796 795 799 800 801 808 811 806 807 815 819 826 804 800 800 762 749 742 742 743 737 735 742
786 787 786 783 786 789 790 798 794 785 774 782 781 785 783 784 786 794 792 790 786 783 788 791 798 795 796 788 797 806 797 803 815 807 791 815 792 753 738 737 738 739 739 737 739
787 786 786 785 786 790 793 790 780 775 765 777 782 780 782 784 785 789 786 782 776 782 789 782 788 784 790 787 784 802 807 787 802 831 817 779 750 735 744 747 741 738 739 738 736
787 786 784 784 787 789 790 779 769 759 765 767 773 772 772 780 788 787 779 769 776 777 777 773 785 795 796 796 792 791 782 806 803 818 811 770 761 748 741 737 737 740 736 735 738
788 786 783 784 788 787 779 772 766 765 765 768 766 766 770 783 788 790 776 771 772 775 775 774 783 800 801 793 784 797 797 796 789 790 790 786 756 723 729 732 734 739 741 739 739
788 784 784 786 785 776 773 770 768 766 766 768 766 762 766 773 779 781 778 772 776 780 783 777 778 782 785 782 787 776 775 782 789 794 789 786 757 732 729 733 739 738 739 739 741
785 783 784 785 773 765 765 765 766 767 765 765 766 763 764 768 784 779 771 770 777 781 783 785 800 799 790 788 791 788 775 780 774 785 786 790 760 724 726 735 735 738 737 737 740
786 780 782 785 768 761 762 763 764 765 764 764 763 761 766 769 770 774 776 773 777 778 787 796 806 799 780 763 765 778 777 774 780 787 773 768 748 728 728 733 731 735 738 737 736
782 771 765 771 771 764 759 755 762 763 765 765 766 763 763 770 767 765 767 770 781 784 787 794 802 797 781 773 769 773 772 769 775 772 776 755 756 731 729 732 731 729 730 730 731
774 771 771 762 758 764 764 759 760 757 762 763 763 761 763 765 761 767 774 778 771 777 781 789 789 782 780 769 767 768 765 761 757 758 758 749 746 726 726 727 729 729 729 727 730
770 769 766 757 759 757 758 754 756 762 758 760 762 764 765 768 775 778 783 787 791 794 785 791 794 792 777 770 774 781 767 752 752 748 748 752 733 732 728 728 727 723 725 725 723
Wind_Speed
7 6 5 7 5 4 2 1 1 0 1 2 2 4 4 2 4 5 4 3 3 4 4 2 3 3 4 3 1 3 8 8 7 5 3 7 9 4 2 6 3 5 3 3 20
8 8 7 7 6 4 3 2 1 1 2 2 3 5 5 1 4 5 4 4 4 4 4 7 7 7 4 4 3 6 9 8 4 3 3 8 10 8 6 10 10 8 6 7 17
8 8 8 7 6 5 3 2 1 2 2 3 3 6 4 5 5 3 4 3 4 5 3 4 3 6 6 3 5 3 10 1 2 1 2 6 8 3 8 12 11 11 13 13 18
7 6 6 5 5 4 3 1 1 3 4 5 5 7 1 4 3 2 3 4 5 5 5 6 6 5 6 7 4 7 3 2 1 2 2 4 2 6 13 13 5 8 4 18 17
8 6 5 5 4 2 2 0 1 2 4 5 6 5 3 5 1 2 3 4 4 4 7 7 7 6 8 5 5 8 3 3 3 2 2 3 7 8 13 14 6 2 4 14 15
8 7 6 6 4 3 1 2 3 3 4 5 6 3 3 6 4 3 5 6 3 5 4 5 3 3 1 3 7 2 4 4 4 4 3 5 8 2 8 12 14 12 11 12 15
7 6 5 5 5 5 4 4 3 4 6 6 6 5 3 1 2 4 5 4 5 3 4 1 3 3 3 4 2 2 5 6 9 6 3 3 11 17 14 4 9 16 14 15 15
6 5 3 2 2 3 3 5 5 5 5 7 5 2 1 1 2 3 5 3 5 3 5 5 4 6 2 4 4 5 4 8 7 7 4 4 13 2 2 9 13 15 14 15 17
8 6 5 2 1 1 3 4 5 5 4 5 2 3 2 2 3 3 2 4 6 5 5 6 3 3 4 6 6 7 8 12 6 6 2 11 9 2 2 7 12 13 14 15 16
9 7 5 3 2 2 4 4 2 2 1 2 2 3 3 2 3 3 2 6 2 7 5 3 3 6 7 9 10 9 10 6 8 5 6 11 16 18 11 9 12 14 15 14 16
9 8 7 4 2 4 4 2 3 3 3 2 2 3 3 2 4 3 2 4 5 6 7 3 8 10 15 14 10 5 6 7 2 3 4 12 18 19 17 16 18 19 19 19 20
7 9 9 7 5 3 6 2 2 2 2 3 2 2 1 3 3 5 6 9 7 10 4 5 12 13 3 2 7 9 12 13 8 1 3 13 22 18 20 21 19 21 20 20 19
4 4 11 9 7 3 0 1 1 1 3 1 3 3 2 6 3 11 10 4 7 13 12 14 2 5 6 7 10 12 13 11 8 4 12 11 18 15 12 13 15 20 21 21 19
1 4 6 12 5 4 2 7 3 1 4 6 5 4 4 4 5 1 7 2 4 13 11 11 7 6 8 13 12 14 8 12 6 5 6 1 9 18 17 17 13 17 16 18 16
6 3 8 12 3 5 5 6 6 2 4 7 3 2 2 6 6 2 0 2 9 8 7 5 9 10 11 8 11 2 3 4 3 5 9 13 7 9 11 10 15 16 14 12 11
5 4 4 5 2 3 8 9 3 5 10 5 4 5 6 5 2 3 6 1 4 5 6 3 1 5 5 4 6 12 7 3 1 3 8 12 12 12 14 10 6 6 3 3 3
6 5 3 4 1 5 14 3 3 5 2 7 5 6 9 7 5 7 12 12 12 8 15 10 9 4 4 6 4 10 7 4 5 5 9 5 6 14 13 12 10 10 14 6 2
5 7 6 4 4 12 6 2 6 8 13 2 4 5 8 10 7 6 6 14 19 15 7 14 10 14 13 12 8 15 13 7 6 7 10 3 9 6 7 10 11 12 12 11 7
6 3 4 4 8 15 2 6 6 6 6 10 5 5 7 7 3 11 16 15 13 19 12 11 11 4 2 8 12 7 10 10 9 3 4 9 19 19 11 11 14 16 13 13 10
2 3 4 7 11 8 4 12 12 10 9 12 15 11 11 11 8 10 12 6 14 13 19 7 14 1 3 3 7 7 3 7 6 6 9 14 18 13 6 9 6 7 6 6 4
1 2 2 8 9 4 7 10 12 3 7 10 13 13 11 8 8 6 5 2 7 3 15 13 7 3 4 11 15 7 7 6 4 7 7 11 11 9 5 2 1 1 1 3 6
1 3 2 13 7 4 12 6 2 10 12 7 7 10 10 7 7 14 12 8 3 5 6 12 4 12 11 3 4 14 18 19 7 6 6 6 16 6 1 1 2 2 3 4 2
3 2 1 10 9 12 13 20 17 9 12 12 12 13 11 12 7 13 12 4 7 3 3 2 3 3 4 5 2 6 14 9 18 2 11 9 11 3 4 3 5 6 5 4 3
2 4 3 4 9 12 17 17 19 11 15 14 6 14 15 16 11 5 9 3 5 8 8 8 6 6 10 2 4 6 13 16 16 12 20 18 25 25 17 11 8 6 4 8 8
5 5 5 7 11 14 14 8 19 14 14 11 8 17 15 13 17 21 18 16 7 4 4 9 6 12 20 23 23 20 19 16 19 23 22 25 24 31 23 18 15 15 14 15 15
4 4 3 6 12 19 14 14 16 19 12 14 17 15 16 18 18 11 2 6 14 9 10 4 4 9 16 21 20 22 20 18 21 24 24 30 28 28 24 21 18 18 18 19 15
6 4 4 8 8 13 18 19 11 14 13 15 13 14 12 11 5 7 4 3 3 3 4 6 3 3 10 11 10 10 20 25 24 23 22 21 27 22 26 23 21 21 17 18 18
Wind_Direction
180 178 165 166 162 178 180 204 230 187 233 283 323 306 313 327 146 151 192 178 173 183 173 144 199 187 183 162 239 274 248 243 241 237 221 150 193 167 37 252 215 191 309 50 152
182 175 181 168 170 182 175 188 243 297 311 324 329 318 328 101 193 212 218 196 182 186 167 190 182 183 175 181 202 239 239 255 22 269 243 179 203 177 216 217 230 212 163 149 160
193 177 181 183 180 175 188 212 250 314 324 335 327 325 326 159 214 147 200 194 190 175 204 186 196 209 208 203 194 204 247 72 191 154 300 186 207 193 225 246 235 224 193 178 181
202 191 182 182 184 177 177 196 343 334 339 347 341 334 239 186 217 140 165 177 191 166 177 172 191 198 224 204 198 235 246 253 115 130 195 210 224 214 229 237 15 254 266 178 192
206 201 196 181 178 174 216 234 312 358 349 342 344 327 186 210 95 171 141 157 173 185 210 199 199 210 213 196 196 235 189 200 143 169 235 312 240 242 246 242 200 240 203 191 202
211 209 201 199 200 200 235 307 318 331 349 341 343 330 247 230 139 154 147 146 179 198 192 205 256 234 201 210 237 145 197 194 191 194 207 263 257 227 237 244 233 216 220 215 215
214 222 223 237 227 223 241 261 290 320 329 337 349 8 255 15 137 155 154 167 163 202 167 112 118 239 139 170 172 173 209 217 216 197 216 253 254 241 243 184 240 234 233 233 224
200 214 211 223 249 274 282 285 278 293 314 330 342 343 332 161 134 129 148 117 113 117 118 113 108 103 335 121 177 215 240 225 137 183 151 203 264 202 254 212 243 243 239 232 232
211 209 203 211 261 290 309 300 278 282 300 322 348 291 162 131 160 175 168 152 123 100 87 112 91 109 163 213 209 207 253 217 184 203 176 211 271 104 152 225 249 250 249 245 239
218 225 224 219 269 311 331 312 276 273 306 290 254 247 153 152 135 151 165 153 140 138 131 151 169 197 220 218 228 225 229 223 252 141 225 244 254 270 245 226 256 261 256 245 243
213 228 230 231 279 338 0 330 206 177 208 280 31 2 131 107 107 145 151 160 142 203 195 159 212 207 221 224 276 302 269 257 155 94 282 257 266 270 273 267 260 256 255 254 249
194 218 227 227 236 317 7 5 31 32 261 215 236 278 150 199 150 175 170 193 191 202 164 177 223 232 91 115 230 247 259 263 268 319 261 285 281 276 270 262 257 259 256 253 254
69 195 229 224 237 263 84 127 150 65 268 183 181 215 180 184 228 176 187 189 208 209 208 225 181 161 177 194 217 235 247 258 266 315 244 288 276 264 244 252 262 259 259 260 257
331 352 199 200 203 177 190 216 195 17 265 196 197 139 155 201 223 51 184 235 209 218 211 240 159 157 199 225 215 245 218 254 270 280 270 337 288 290 284 272 245 261 252 254 252
7 318 160 172 156 186 143 186 169 323 244 100 148 75 142 213 121 148 160 193 203 184 187 180 192 199 214 213 199 237 89 195 230 262 297 246 258 264 263 256 264 260 263 266 259
297 297 217 172 178 197 140 148 101 202 228 166 145 168 155 200 123 111 172 198 347 192 238 283 3 206 231 74 219 133 119 131 220 280 259 245 224 263 253 267 260 269 259 304 6
271 278 272 171 123 168 143 145 153 208 138 176 174 180 193 180 189 198 186 188 192 197 226 204 218 161 169 129 145 200 181 229 236 205 259 101 228 250 292 284 261 283 292 290 217
327 270 282 218 173 152 108 81 197 194 202 93 143 152 190 165 201 193 200 221 221 230 273 215 217 189 194 219 179 197 204 210 231 236 270 117 240 261 227 282 275 265 272 296 291
332 313 268 246 205 169 163 207 213 190 208 159 149 183 187 195 260 198 221 230 224 212 218 215 234 165 179 218 209 173 215 250 275 71 286 251 263 266 205 226 262 271 285 282 283
348 317 249 211 192 166 212 224 224 230 167 187 209 199 223 183 191 201 199 237 222 233 226 252 259 174 135 194 242 241 227 193 218 217 236 255 261 259 267 273 232 270 290 322 341
261 242 202 177 161 226 210 221 227 207 193 195 221 205 205 177 187 232 237 180 204 220 209 226 227 121 164 211 197 184 214 226 239 243 244 259 261 278 260 341 239 173 350 8 351
226 229 175 167 188 205 229 213 174 231 226 240 257 228 205 199 210 212 226 228 67 151 178 227 274 240 218 112 290 242 228 211 214 200 241 283 268 132 3 346 47 305 313 319 310
220 259 46 198 204 213 224 220 226 214 224 229 229 216 219 226 219 234 245 257 166 235 165 121 282 243 238 217 207 237 225 249 236 259 218 217 253 144 338 242 287 297 338 203 240
203 204 156 220 257 239 217 221 215 223 240 222 239 228 223 216 220 227 222 236 192 197 184 97 187 229 231 216 86 218 234 234 234 233 245 239 253 268 259 265 265 254 264 275 254
207 227 187 197 224 220 226 216 214 215 220 222 231 232 214 230 234 238 243 249 167 200 187 170 224 221 246 262 277 274 270 245 223 235 239 258 251 266 274 276 287 297 293 291 294
202 213 200 280 218 206 215 221 227 215 191 215 232 227 230 240 239 241 298 292 246 185 215 167 252 254 264 260 257 254 250 241 229 232 239 246 258 261 281 282 279 278 274 277 281
212 242 252 216 206 203 212 219 224 219 220 243 243 223 218 238 321 332 307 252 268 339 226 184 182 169 262 270 275 261 239 239 245 244 243 248 260 274 274 279 282 280 286 288 281